Home   Weather   Essen   Past weeks

Flag for Germany Past Weather in Essen, North Rhine-Westphalia, Germany — Yesterday and Last 2 Weeks

Now
70 °F

Passing clouds.


Feels Like: 70 °F
Forecast: 61 / 70 °F
Wind: 8 mph from Southeast

Location: Duesseldorf

Current Time: Jul 26, 2017 at 10:48:15 pm

Latest Report: Jul 26, 2017 at 10:20 pm


Visibility: N/A

Pressure: 29.77 "Hg

Humidity: 60%

Dew Point: 55 °F

Location of EssenLocation

Past Weather in Essen — Graph

°F

Essen Temperature Yesterday

Maximum temperature yesterday: 66 °F (at 12:50 pm)
Minimum temperature yesterday: 55 °F (at 12:50 am)
Average temperature yesterday: 60 °F

High & Low Weather Summary for the Past Weeks

 TemperatureHumidityPressure
High90 °F (Jul 19, 1:50 pm)100% (Jul 12, 10:31 am)30.24 "Hg (Jul 12, 10:31 am)
Low46 °F (Jul 13, 4:20 am)37% (Jul 18, 3:50 pm)29.68 "Hg (Jul 12, 12:58 pm)
Average65 °F72%29.96 "Hg
* Reported Jul 11 9:20 pm — Jul 26 9:50 pm, Essen. Weather by CustomWeather, © 2017

Note: Actual official high and low records may vary slightly from our data, if they occured in-between our weather recording intervals... More about our weather records

Advertising

Essen Weather History for the Previous 24 Hours

Scroll right to see more
 ConditionsComfort  
Time TempWeatherWind HumidityBarometerVisibility
9:50 pm
Wed, Jul 26
70 °FPassing clouds.7 mph57%29.77 "HgN/A
8:50 pm70 °FSunny.7 mph57%29.77 "Hg10 mi
8:20 pm70 °FSunny.3 mph60%29.77 "Hg10 mi
7:50 pm72 °FSunny.5 mph53%29.77 "Hg10 mi
7:20 pm72 °FPassing clouds.6 mph53%29.80 "HgN/A
6:50 pm72 °FSunny.7 mph53%29.80 "Hg10 mi
6:20 pm72 °FSunny.10 mph50%29.80 "Hg10 mi
5:50 pm73 °FPartly sunny.9 mph50%29.80 "HgN/A
5:20 pm72 °FBroken clouds.10 mph53%29.80 "HgN/A
4:50 pm72 °FBroken clouds.6 mph57%29.80 "HgN/A
4:20 pm72 °FPartly sunny.3 mph61%29.80 "HgN/A
3:20 pm72 °FPartly sunny.8 mph61%29.80 "HgN/A
2:50 pm70 °FPartly sunny.8 mph64%29.80 "HgN/A
2:20 pm70 °FPartly sunny.13 mph64%29.80 "HgN/A
1:50 pm70 °FScattered clouds.12 mph60%29.83 "HgN/A
1:20 pm68 °FScattered clouds.12 mph64%29.83 "HgN/A
12:50 pm70 °FScattered clouds.8 mph60%29.83 "HgN/A
12:20 pm70 °FScattered clouds.9 mph60%29.83 "HgN/A
11:50 am68 °FScattered clouds.10 mph64%29.83 "HgN/A
11:20 am66 °FScattered clouds.8 mph73%29.83 "HgN/A
10:50 am64 °FScattered clouds.8 mph78%29.83 "HgN/A
10:20 am63 °FPartly sunny.8 mph83%29.83 "HgN/A
9:50 am63 °FPartly sunny.13 mph77%29.83 "HgN/A
9:20 am63 °FPartly sunny.12 mph83%29.83 "HgN/A
9:04 am63 °FPartly sunny.13 mph83%29.80 "HgN/A
8:20 am61 °FBroken clouds.10 mph88%29.80 "HgN/A
7:50 am61 °FPartly sunny.9 mph88%29.80 "HgN/A
7:20 am59 °FPartly sunny.10 mph94%29.80 "HgN/A
6:50 am59 °FPartly sunny.12 mph94%29.80 "HgN/A
6:20 am61 °FPartly sunny.13 mph88%29.80 "HgN/A
5:50 am61 °FPartly sunny.13 mph88%29.80 "HgN/A
5:20 am61 °FLight rain. Passing clouds.12 mph94%29.80 "HgN/A
4:50 am61 °FPassing clouds.10 mph94%29.80 "HgN/A
4:20 am61 °FLow clouds.8 mph94%29.80 "HgN/A
3:50 am61 °FPassing clouds.9 mph94%29.80 "HgN/A
3:20 am61 °FPassing clouds.9 mph94%29.80 "HgN/A
2:50 am61 °FPassing clouds.9 mph94%29.80 "HgN/A
2:20 am61 °FPassing clouds.9 mph94%29.80 "HgN/A
1:50 am61 °FPartly cloudy.10 mph94%29.80 "HgN/A
1:20 am61 °FPartly cloudy.8 mph94%29.80 "HgN/A
12:50 am61 °FPartly cloudy.10 mph94%29.80 "HgN/A
12:20 am61 °FPartly cloudy.10 mph88%29.80 "HgN/A
11:50 pm
Tue, Jul 25
59 °FLight rain. Partly cloudy.10 mph94%29.80 "HgN/A
11:20 pm59 °FLight rain. Overcast.10 mph94%29.80 "HgN/A
10:50 pm59 °FLight rain. Overcast.12 mph94%29.80 "HgN/A
10:20 pm59 °FLight rain. Overcast.13 mph94%29.77 "HgN/A
Weather by CustomWeather, © 2017

See weather overviewHow to use our weather pages